STARLINK-1875 (47160 NORAD) Tracking and Keplerian Element Data
This shows tracking and keplerian element data for the satellite.
Feedback or suggestion? Click here.
Element | Value |
Catalog | 47160 |
Name | STARLINK-1875 |
Epoch Orbit | 1568 |
Epoch Day | 59.91667824 |
Epoch Year | 2021 |
RAAN | 248.234 |
Inclination | 53.0567 |
Eccentricity | 0.0001547 |
Argument of Perigee | 86.2197 |
Mean Anonmoly | 45.3481 |
Mean Motion | 15.08405795 |
Decay Rate | -0.0103913 |
L1 | 1 47160U 20088AQ 21059.91667824 -.01039130 00000-0 -71212-1 0 9999 |
L2 | 2 47160 53.0567 248.2340 0001547 86.2197 45.3481 15.08405795 15688 |
Live tracking and technical data element details for STARLINK-1875 (NORAD 47160). STARLINK-1875 can be tracked NOW for your location showing map with azimuth and elevation plus other details from your city location.
Track the satellite on the map from your city or location and see movement details for azimuth, elevation, latitude, longitude, range, height, and movement on the map or in text.
IsCatalogInMostPopularTable: catalog: 47160, numindb: 34
Update: records affected: 1
GetName: 47160 STARLINK-1875
Hit Count: updated at: Mon, 01 Mar 2021 22:21:12 GMT